• en Belgique
  • Liste des pays
  • À 7 jours
  • Température de l'eau
  • Carte satellitaire
  • Carte météo
  • Widgets météo
  • user-avatar
    Se connecter

    Météo par heure à Anvers

    Ce jour, 23 Mai, Mercredi

    Heure Température Précipitation Vent Pression Humidité
    00:00 +16°C° 0,1 mm 2 m/s 761 mmHg 88%
    01:00 +16°C° 0,1 mm 2 m/s 761 mmHg 89%
    02:00 +15°C° 0,1 mm 2 m/s 762 mmHg 91%
    03:00 +15°C° 0,1 mm 2 m/s 762 mmHg 92%
    04:00 +15°C° 0,2 mm 2 m/s 762 mmHg 92%
    05:00 +16°C° 0,2 mm 2 m/s 762 mmHg 92%
    06:00 +16°C° 0,2 mm 2 m/s 762 mmHg 92%
    07:00 +17°C° 0,6 mm 3 m/s 763 mmHg 89%
    08:00 +18°C° 0,6 mm 3 m/s 763 mmHg 86%
    09:00 +19°C° 0,6 mm 4 m/s 763 mmHg 83%
    10:00 +20°C° 0,5 mm 4 m/s 763 mmHg 79%
    11:00 +21°C° 0,5 mm 5 m/s 763 mmHg 74%
    12:00 +22°C° 0,5 mm 5 m/s 763 mmHg 70%
    13:00 +22°C° 0,7 mm 5 m/s 763 mmHg 70%
    14:00 +23°C° 0,7 mm 6 m/s 763 mmHg 69%
    15:00 +23°C° 0,7 mm 6 m/s 763 mmHg 68%
    16:00 +22°C° 0,6 mm 5 m/s 763 mmHg 71%
    17:00 +22°C° 0,6 mm 5 m/s 763 mmHg 73%
    18:00 +21°C° 0,6 mm 4 m/s 763 mmHg 75%
    19:00 +20°C° 0,2 mm 4 m/s 763 mmHg 76%
    20:00 +20°C° 0,2 mm 4 m/s 763 mmHg 76%
    21:00 +19°C° 0,2 mm 4 m/s 764 mmHg 76%
    22:00 +18°C° 0 mm 4 m/s 764 mmHg 77%
    23:00 +18°C° 0 mm 4 m/s 764 mmHg 78%

    Demain, 24 Mai, Jeudi

    Heure Température Précipitation Vent Pression Humidité
    00:00 +17°C° 0 mm 4 m/s 764 mmHg 78%
    01:00 +17°C° 0 mm 4 m/s 764 mmHg 78%
    02:00 +15°C° 0 mm 4 m/s 764 mmHg 77%
    03:00 +15°C° 0 mm 4 m/s 764 mmHg 77%
    04:00 +15°C° 0 mm 4 m/s 764 mmHg 76%
    05:00 +15°C° 0 mm 4 m/s 763 mmHg 76%
    06:00 +17°C° 0 mm 4 m/s 763 mmHg 76%
    07:00 +18°C° 0 mm 4 m/s 763 mmHg 74%
    08:00 +19°C° 0 mm 4 m/s 763 mmHg 71%
    09:00 +21°C° 0 mm 4 m/s 763 mmHg 69%
    10:00 +22°C° 0,1 mm 4 m/s 763 mmHg 68%
    11:00 +23°C° 0,1 mm 4 m/s 763 mmHg 67%
    12:00 +23°C° 0,1 mm 4 m/s 762 mmHg 66%
    13:00 +24°C° 1,1 mm 3 m/s 762 mmHg 69%
    14:00 +24°C° 1,1 mm 3 m/s 762 mmHg 72%
    15:00 +22°C° 1,1 mm 3 m/s 761 mmHg 75%
    16:00 +23°C° 0,8 mm 2 m/s 761 mmHg 77%
    17:00 +23°C° 0,8 mm 2 m/s 761 mmHg 79%
    18:00 +21°C° 0,8 mm 2 m/s 761 mmHg 81%
    19:00 +20°C° 0,1 mm 2 m/s 761 mmHg 84%
    20:00 +19°C° 0,1 mm 2 m/s 761 mmHg 87%
    21:00 +18°C° 0,1 mm 2 m/s 762 mmHg 90%
    22:00 +18°C° 0 mm 2 m/s 762 mmHg 91%
    23:00 +17°C° 0 mm 2 m/s 762 mmHg 91%

    Après-demain, 25 Mai, Vendredi

    Heure Température Précipitation Vent Pression Humidité
    00:00 +17°C° 0 mm 2 m/s 762 mmHg 92%
    01:00 +17°C° 0 mm 2 m/s 762 mmHg 92%
    02:00 +16°C° 0 mm 1 m/s 762 mmHg 93%
    03:00 +16°C° 0 mm 1 m/s 762 mmHg 93%
    04:00 +18°C° 0 mm 1 m/s 762 mmHg 91%
    05:00 +19°C° 0 mm 1 m/s 762 mmHg 89%
    06:00 +19°C° 0 mm 1 m/s 762 mmHg 87%
    07:00 +21°C° 0 mm 1 m/s 762 mmHg 80%
    08:00 +23°C° 0 mm 1 m/s 762 mmHg 74%
    09:00 +24°C° 0 mm 1 m/s 762 mmHg 67%
    10:00 +25°C° 0 mm 1 m/s 762 mmHg 62%
    11:00 +27°C° 0 mm 1 m/s 762 mmHg 57%
    12:00 +28°C° 0 mm 1 m/s 762 mmHg 51%
    13:00 +28°C° 0 mm 1 m/s 762 mmHg 50%
    14:00 +28°C° 0 mm 1 m/s 762 mmHg 49%
    15:00 +28°C° 0 mm 1 m/s 762 mmHg 47%
    16:00 +28°C° 0 mm 1 m/s 762 mmHg 52%
    17:00 +27°C° 0 mm 2 m/s 762 mmHg 56%
    18:00 +26°C° 0 mm 2 m/s 762 mmHg 61%
    19:00 +25°C° 0 mm 2 m/s 762 mmHg 65%
    20:00 +23°C° 0 mm 2 m/s 763 mmHg 68%
    21:00 +21°C° 0 mm 2 m/s 763 mmHg 72%
    22:00 +20°C° 0,1 mm 2 m/s 763 mmHg 74%
    23:00 +20°C° 0,1 mm 2 m/s 763 mmHg 76%

    26 Mai, Samedi

    Heure Température Précipitation Vent Pression Humidité
    00:00 +19°C° 0,1 mm 2 m/s 763 mmHg 78%
    01:00 +19°C° 0 mm 2 m/s 763 mmHg 80%
    02:00 +19°C° 0 mm 2 m/s 763 mmHg 82%
    03:00 +18°C° 0 mm 2 m/s 763 mmHg 84%
    04:00 +19°C° 0 mm 2 m/s 763 mmHg 83%
    05:00 +20°C° 0 mm 2 m/s 763 mmHg 81%
    06:00 +21°C° 0 mm 3 m/s 763 mmHg 80%
    07:00 +22°C° 0 mm 3 m/s 763 mmHg 75%
    08:00 +25°C° 0 mm 3 m/s 763 mmHg 70%
    09:00 +27°C° 0 mm 4 m/s 763 mmHg 65%
    10:00 +28°C° 0 mm 4 m/s 763 mmHg 61%
    11:00 +29°C° 0 mm 4 m/s 763 mmHg 57%
    12:00 +30°C° 0 mm 4 m/s 763 mmHg 53%
    13:00 +30°C° 0 mm 4 m/s 763 mmHg 52%
    14:00 +30°C° 0 mm 4 m/s 763 mmHg 52%
    15:00 +32°C° 0 mm 4 m/s 763 mmHg 51%
    16:00 +30°C° 0 mm 4 m/s 763 mmHg 56%
    17:00 +29°C° 0 mm 4 m/s 763 mmHg 60%
    18:00 +28°C° 0 mm 4 m/s 763 mmHg 64%
    19:00 +27°C° 0 mm 4 m/s 763 mmHg 66%
    20:00 +26°C° 0 mm 5 m/s 764 mmHg 67%
    21:00 +23°C° 0 mm 5 m/s 764 mmHg 68%
    22:00 +23°C° 0,1 mm 5 m/s 764 mmHg 69%
    23:00 +22°C° 0,1 mm 5 m/s 764 mmHg 70%

    27 Mai, Dimanche

    Heure Température Précipitation Vent Pression Humidité
    00:00 +21°C° 0,1 mm 4 m/s 764 mmHg 71%
    01:00 +21°C° 0 mm 4 m/s 764 mmHg 72%
    02:00 +20°C° 0 mm 4 m/s 764 mmHg 73%
    03:00 +19°C° 0 mm 4 m/s 764 mmHg 73%
    04:00 +20°C° 0 mm 5 m/s 764 mmHg 74%
    05:00 +20°C° 0 mm 5 m/s 764 mmHg 74%
    06:00 +20°C° 0 mm 5 m/s 764 mmHg 74%
    07:00 +22°C° 0 mm 5 m/s 764 mmHg 70%
    08:00 +23°C° 0 mm 6 m/s 764 mmHg 66%
    09:00 +26°C° 0 mm 6 m/s 764 mmHg 62%
    10:00 +27°C° 0 mm 6 m/s 764 mmHg 60%
    11:00 +28°C° 0 mm 6 m/s 763 mmHg 57%
    12:00 +29°C° 0 mm 5 m/s 763 mmHg 54%
    13:00 +29°C° 0 mm 5 m/s 763 mmHg 54%
    14:00 +30°C° 0 mm 5 m/s 762 mmHg 54%
    15:00 +30°C° 0 mm 4 m/s 762 mmHg 53%
    16:00 +29°C° 0 mm 4 m/s 762 mmHg 57%
    17:00 +28°C° 0 mm 4 m/s 762 mmHg 61%
    18:00 +27°C° 0 mm 4 m/s 761 mmHg 65%
    19:00 +26°C° 0,2 mm 4 m/s 762 mmHg 68%
    20:00 +23°C° 0,2 mm 4 m/s 762 mmHg 71%
    21:00 +22°C° 0,2 mm 4 m/s 762 mmHg 74%
    22:00 +21°C° 0,3 mm 4 m/s 762 mmHg 76%
    23:00 +21°C° 0,3 mm 3 m/s 762 mmHg 78%

    28 Mai, Lundi

    Heure Température Précipitation Vent Pression Humidité
    00:00 +20°C° 0,3 mm 3 m/s 762 mmHg 79%
    01:00 +20°C° 0 mm 3 m/s 761 mmHg 80%
    02:00 +20°C° 0 mm 3 m/s 761 mmHg 82%
    03:00 +19°C° 0 mm 3 m/s 761 mmHg 83%
    04:00 +20°C° 0 mm 3 m/s 761 mmHg 82%
    05:00 +21°C° 0 mm 3 m/s 761 mmHg 80%
    06:00 +21°C° 0 mm 3 m/s 761 mmHg 79%
    07:00 +24°C° 0 mm 3 m/s 761 mmHg 74%
    08:00 +26°C° 0 mm 3 m/s 761 mmHg 69%
    09:00 +27°C° 0 mm 4 m/s 761 mmHg 64%
    10:00 +29°C° 0 mm 4 m/s 761 mmHg 60%
    11:00 +30°C° 0 mm 4 m/s 760 mmHg 55%
    12:00 +31°C° 0 mm 3 m/s 760 mmHg 50%
    13:00 +31°C° 0,1 mm 3 m/s 760 mmHg 50%
    14:00 +33°C° 0,1 mm 3 m/s 759 mmHg 49%
    15:00 +33°C° 0,1 mm 3 m/s 759 mmHg 48%
    16:00 +31°C° 0,2 mm 3 m/s 759 mmHg 52%
    17:00 +30°C° 0,2 mm 3 m/s 759 mmHg 57%
    18:00 +29°C° 0,2 mm 3 m/s 759 mmHg 61%
    19:00 +28°C° 1 mm 3 m/s 759 mmHg 66%
    20:00 +26°C° 1 mm 3 m/s 759 mmHg 71%
    21:00 +24°C° 1 mm 3 m/s 759 mmHg 77%
    22:00 +24°C° 1,3 mm 3 m/s 759 mmHg 80%
    23:00 +22°C° 1,3 mm 3 m/s 759 mmHg 83%
    Voir plus